Regional Weather Roundup
Issued by NWS

Home | Current Version | Previous Version | Graphics & Text | Print | Product List | Glossary On
Versions: 1 2 3 4 5 6 7 8 9 10 11 12 13 14 15 16 17 18 19 20 21 22 23 24 25 26 27 28 29 30 31 32 33 34 35 36 37 38 39 40 41 42 43 44 45 46 47 48
000
ASUS45 KBOU 270007
RWRCO

WEATHER ROUNDUP FOR COLORADO
NATIONAL WEATHER SERVICE DENVER/BOULDER CO
600 PM MDT THU MAR 26 2015

NOTE: "FAIR" INDICATES FEW OR NO CLOUDS BELOW 12000 FEET WITH NO
SIGNIFICANT WEATHER AND/OR OBSTRUCTIONS TO VISIBILITY.

COZ001>005-013-030-031-270100-
...NORTHWEST COLORADO...

CITY           SKY/WX    TMP DP  RH WIND       PRES   REMARKS
CRAIG          MOSUNNY   56  25  30 SW13      30.23F
HAYDEN         MOSUNNY   52  23  32 W12G17    30.24F
MEEKER         SUNNY     57  22  25 W8        30.27R
MOUNT WERNER   NOT AVBL
STEAMBOAT SPGS CLOUDY    48  27  43 SE5       30.26S
WALDEN         CLOUDY    41  23  48 SW12      30.27S
$$

COZ006>008-011-270100-
...WEST CENTRAL VALLEYS...

CITY           SKY/WX    TMP DP  RH WIND       PRES   REMARKS
GRAND JUNCTION SUNNY     62  19  19 NW8       30.22F
MONTROSE       SUNNY     60  18  19 NW10      30.27S
EAGLE          MOSUNNY   57  21  24 SW8G18    30.26R
RIFLE          SUNNY     61  21  21 W16       30.21S
DELTA          SUNNY     66  18  16 W13       30.22S
NUCLA          SUNNY     63  18  17 NW13      30.28S
$$

COZ017>023-064>068-270100-
...SOUTHWEST COLORADO...

CITY           SKY/WX    TMP DP  RH WIND       PRES   REMARKS
DURANGO        SUNNY     59  16  18 SW20G26   30.20F
CORTEZ         SUNNY     63  14  15 W14G25    30.23R
PAGOSA SPRINGS MOSUNNY   58   9  14 SW6       30.25R
TELLURIDE      SUNNY     47  20  33 CALM      30.36R
WOLF CREEK PAS PTSUNNY   34  14  44 SW14G22   30.43R WCI  24
$$

COZ009-010-012-014-032>034-037-058>063-270100-
...CENTRAL COLORADO...

CITY           SKY/WX    TMP DP  RH WIND       PRES   REMARKS
ASPEN          MOSUNNY   50  23  34 N12G17    30.28R
BUENA VISTA    PTSUNNY   54  16  22 N23       30.20R
COPPER MTN     PTSUNNY   32  19  59 W17G25    30.38R WCI  21
BERTHOUD PASS  CLOUDY    19  14  79 NW30G39   30.35R WCI   0
COTTONWOOD PAS PTSUNNY   48  10  21 W9G21     30.28R
GUNNISON       MOSUNNY   54  18  24 W10G22    30.29R
KREMMLING      PTSUNNY   46  23  39 N9        30.29S
LEADVILLE      PTSUNNY   39  19  44 NW13G18   30.29R
SALIDA         PTSUNNY   58  16  19 N12G17    30.27R
SUNLIGHT       SUNNY     39  23  52 CALM      30.42R
WILKERSON PASS PTSUNNY   32  18  55 NW13G29   30.35R WCI  22
$$

COZ069>075-270100-
...SAN LUIS VALLEY/SANGRE DE CRISTO MOUNTAINS...

CITY           SKY/WX    TMP DP  RH WIND       PRES   REMARKS
ALAMOSA        MOSUNNY   58  11  15 NW12G18   30.19R
LA VETA PASS   MOSUNNY   43  14  31 W8        30.29R
SAGUACHE       MOSUNNY   55  19  24 NW20G30   30.21R
$$

COZ035-036-038>040-270100-
...NORTHERN COLORADO FRONT RANGE...

CITY           SKY/WX    TMP DP  RH WIND       PRES   REMARKS
DENVER INTL AP PTSUNNY   58  23  26 N3        30.13R
DMNS CITY PARK   N/A     59  21  23 N7G13     30.13R
AURORA         NOT AVBL
FRONT RANGE AP PTSUNNY  N/A N/A N/A MISG        N/A
ERIE MUNI ARPT CLOUDY    60  21  22 NW8       30.13R
BOULDER MUN AP PTSUNNY   59  23  25 W16G24    30.12R
CENTENNIAL     PTSUNNY   56  24  29 N9        30.14R
BROOMFIELD     PTSUNNY   59  21  23 NW12G17   30.14R
FORT COLLINS   PTSUNNY   57  28  33 CALM      30.12S
LONGMONT       CLOUDY    61  26  26 E6        30.14R
$$

COZ041-046-047-076>085-087-088-270100-
...PIKES PEAK/PALMER DIVIDE AND SOUTHERN FOOTHILLS...

CITY           SKY/WX    TMP DP  RH WIND       PRES   REMARKS
COLO. SPRINGS  PTSUNNY   55  20  25 S6        30.16R
A. F. ACADEMY  NOT AVBL
ELLICOTT       PTSUNNY  N/A N/A N/A SW6       30.15R
FALCON         CLOUDY    53  19  26 NW10G17   30.18S
FORT CARSON    NOT AVBL
LIMON          MOSUNNY   55  22  27 N15       30.14R
MONUMENT HILL  PTSUNNY   50  23  34 NE10      30.17R
TRINIDAD       SUNNY     58  20  22 NE7       30.14R
$$

COZ042>045-048>051-090-091-270100-
...NORTHEAST COLORADO...

CITY           SKY/WX    TMP DP  RH WIND       PRES   REMARKS
GREELEY ARPT   CLOUDY    61  27  27 NW13      30.09S
AKRON          CLOUDY    52  26  36 N17       30.11R
BURLINGTON     CLOUDY    56  24  29 N16G26    30.11R
WRAY           CLOUDY    56  29  36 N16G26    30.11S
STERLING       CLOUDY    55  30  38 N18       30.09S
HOLYOKE        MOSUNNY   57  32  38 N23       30.11R
FORT MORGAN    CLOUDY    56  23  27 N15       30.11R
$$

COZ086-089-092>099-270100-
...SOUTHEAST COLORADO...

CITY           SKY/WX    TMP DP  RH WIND       PRES   REMARKS
PUEBLO         MOSUNNY   60  20  21 SE5       30.11S
LA JUNTA       MOSUNNY   63  19  18 CALM      30.11R
LAMAR          CLOUDY    62  23  22 N13       30.09R
SPRINGFIELD      N/A     58  21  24 NW6       30.13
$$



USA.gov is the U.S. government's official web portal to all federal, state and local government web resources and services.